Regional Weather Roundup
Issued by NWS Binghamton, NY

Home | Current Version | Previous Version | Text Only | Print | Product List | Glossary On
Versions: 1 2 3 4 5 6 7 8 9 10 11 12 13 14 15 16 17 18 19 20 21 22 23 24 25 26 27 28 29 30 31 32 33 34 35 36 37 38 39 40 41 42 43 44 45 46 47 48 49 50
000
ASUS41 KBGM 082110
RWRBGM

REGIONAL WEATHER ROUNDUP
NATIONAL WEATHER SERVICE BINGHAMTON NY
500 PM EDT SAT AUG 08 2020

Note: "fair" indicates few or no clouds below 12,000 feet with no
significant weather and/or obstructions to visibility.

* = Station(s) that does not report precipitation, such as rain,
snow, etc, also no thunder or fog.

NYZ009-015>018-022>025-036-037-044>046-055>057-062-082200
...Central New York...

CITY           SKY/WX    TMP DP  RH WIND       PRES   REMARKS
Binghamton     SUNNY     80  61  52 NW6       30.14F
Cortland       FAIR      81  57  44 W5        30.13F
Dansville      MOSUNNY   83  61  47 NW9       30.11F
Elmira         MOSUNNY   85  61  44 W8        30.10F HX  85
Endicott       PTCLDY    82  61  47 CALM      30.10F
Ithaca         MOSUNNY   83  62  49 W6        30.12F
Hamilton       PTSUNNY   81  63  54 N7        30.13S
Monticello     SUNNY     81  64  56 VRB5      30.16F
Norwich        SUNNY     81  63  54 W3        30.12S
Oneonta        MOSUNNY   79  63  57 W6        30.15F
Penn Yan       SUNNY     83  66  56 VRB3      30.11F HX  85
Rome           MOSUNNY   82  64  54 SW7       30.09F
Seneca Falls   CLEAR     82  59  44 NW5       30.10S
Sidney         SUNNY     82  64  54 W3        30.12F
Skaneateles    FAIR      81  64  57 SW5       30.11F
Syracuse       PTSUNNY   84  64  50 W7        30.08F HX  85
$$

PAZ038>040-043-044-047-048-072-082200
...Northeast Pennsylvania...

CITY           SKY/WX    TMP DP  RH WIND       PRES   REMARKS
Hazleton       MOSUNNY   79  63  57 NW3       30.19S
Scranton       MOSUNNY   84  62  47 W5        30.12F HX  85
Towanda        PTCLDY    84  63  48 CALM      30.11F HX  85
$$
&&
KEY
WCI = Wind Chill Index
VSB = Visibility
HX  = Heat Index
$$



USA.gov is the U.S. government's official web portal to all federal, state and local government web resources and services.